TimePST,TemperatureF,Dew PointF,Humidity,Sea Level PressureIn,VisibilityMPH,Wind Direction,Wind SpeedMPH,Gust SpeedMPH,PrecipitationIn,Events,Conditions,WindDirDegrees,DateUTC
12:53 AM,66.9,53.1,61,29.99,10.0,West,13.8,-,N/A,,Clear,270,2012-11-17 08:53:00
1:53 AM,66.0,53.1,63,29.99,10.0,WSW,12.7,-,N/A,,Clear,250,2012-11-17 09:53:00
2:53 AM,64.9,53.1,65,30.00,10.0,West,6.9,-,N/A,,Partly Cloudy,260,2012-11-17 10:53:00
3:53 AM,66.0,53.1,63,29.99,10.0,NNW,3.5,-,N/A,,Clear,340,2012-11-17 11:53:00
4:53 AM,64.0,53.1,67,30.00,10.0,West,6.9,-,N/A,,Clear,260,2012-11-17 12:53:00
5:53 AM,63.0,53.1,70,30.01,10.0,WSW,9.2,-,N/A,,Clear,240,2012-11-17 13:53:00
6:53 AM,64.9,53.1,65,30.03,10.0,WSW,10.4,-,N/A,,Clear,250,2012-11-17 14:53:00
7:53 AM,66.0,53.1,63,30.04,10.0,WSW,5.8,-,N/A,,Clear,240,2012-11-17 15:53:00
8:53 AM,73.0,53.1,49,30.05,10.0,Variable,4.6,-,N/A,,Clear,0,2012-11-17 16:53:00
9:53 AM,78.1,52.0,40,30.04,10.0,WSW,13.8,19.6,N/A,,Clear,250,2012-11-17 17:53:00
10:53 AM,78.1,51.1,39,30.03,10.0,West,10.4,18.4,N/A,,Clear,270,2012-11-17 18:53:00
11:53 AM,80.1,48.9,34,30.00,10.0,WNW,11.5,20.7,N/A,,Scattered Clouds,290,2012-11-17 19:53:00
12:53 PM,80.1,46.9,31,29.98,10.0,West,15.0,21.9,N/A,,Partly Cloudy,270,2012-11-17 20:53:00
1:53 PM,81.0,46.0,29,29.96,10.0,West,12.7,20.7,N/A,,Partly Cloudy,260,2012-11-17 21:53:00
2:53 PM,78.1,46.9,33,29.97,10.0,West,12.7,-,N/A,,Clear,270,2012-11-17 22:53:00
3:53 PM,75.0,48.0,38,29.97,10.0,West,11.5,-,N/A,,Clear,270,2012-11-17 23:53:00
4:53 PM,72.0,48.9,44,29.97,10.0,West,9.2,-,N/A,,Clear,280,2012-11-18 00:53:00
5:53 PM,69.1,48.9,49,29.98,10.0,West,8.1,-,N/A,,Clear,280,2012-11-18 01:53:00
6:53 PM,68.0,50.0,52,29.99,10.0,West,12.7,-,N/A,,Clear,270,2012-11-18 02:53:00
7:53 PM,64.9,48.9,56,30.00,10.0,WNW,5.8,-,N/A,,Clear,290,2012-11-18 03:53:00
8:53 PM,64.9,50.0,58,30.01,10.0,WNW,8.1,-,N/A,,Clear,300,2012-11-18 04:53:00
9:53 PM,64.0,48.9,58,30.01,10.0,WNW,9.2,-,N/A,,Clear,290,2012-11-18 05:53:00
10:53 PM,63.0,48.9,60,30.01,10.0,WNW,6.9,-,N/A,,Clear,300,2012-11-18 06:53:00
11:53 PM,63.0,48.0,58,30.01,10.0,WNW,9.2,-,N/A,,Clear,290,2012-11-18 07:53:00